Change the Weather History Date:

Friday, September 13, 2013

  Actual Average Record
Temperature  
Mean Temperature 66 °F -  
Max Temperature 73 °F 86 °F 104 °F (1956)
Min Temperature 60 °F 61 °F 45 °F (1949)
Cooling Degree Days 2    
Growing Degree Days 16 (Base 50)    
Moisture  
Dew Point 60 °F    
Average Humidity 76    
Maximum Humidity 88    
Minimum Humidity 50    
Precipitation  
Precipitation 0.80 in - - ()
Sea Level Pressure  
Sea Level Pressure 30.10 in    
Wind  
Wind Speed 9 mph (NE)    
Max Wind Speed 18 mph    
Max Gust Speed -    
Visibility 9 miles    
Events Rain    
Averages and records for this station are not official NWS values.
T = Trace of Precipitation, MM = Missing Value Source: NWS Daily Summary

Daily Weather History Graph

Daily Weather History Graph

Search for Another Location

Airport or City:

Trip Planner

Search our weather history database for the weather conditions in past years. The results will help you decide how hot, cold, wet, or windy it might be!

Date:

Astronomy

Sep. 13, 2013 Rise Set
Actual Time 7:15 AM CDT 7:44 PM CDT
Civil Twilight 6:49 AM CDT 8:10 PM CDT
Nautical Twilight 6:18 AM CDT 8:41 PM CDT
Astronomical Twilight 5:47 AM CDT 9:12 PM CDT
Moon 3:29 PM CDT (9/13) 12:53 AM CDT (9/13)
Length of Visible Light 13h 21m
Length of Day
12h 29m
First Quarter, 61% of the Moon is Illuminated
Sep 13
First Quarter
Sep 19
Full
Sep 26
Last Quarter
Oct 4
New
Oct 11
First Quarter

Hourly Weather History & Observations

Time (CDT) Temp. Dew Point Humidity Pressure Visibility Wind Dir Wind Speed Gust Speed Precip Events Conditions
12:10 AM 73.4 °F 66.2 °F 78% 30.12 in 10.0 mi NE 8.1 mph - N/A   Overcast
12:30 AM 73.4 °F 66.2 °F 78% 30.12 in 10.0 mi ENE 6.9 mph - N/A   Overcast
12:50 AM 73.4 °F 66.2 °F 78% 30.12 in 10.0 mi NE 6.9 mph - N/A   Overcast
1:10 AM 73.4 °F 66.2 °F 78% 30.12 in 10.0 mi ENE 6.9 mph - N/A   Overcast
1:30 AM 73.4 °F 66.2 °F 78% 30.12 in 10.0 mi ENE 5.8 mph - N/A   Overcast
1:50 AM 73.4 °F 66.2 °F 78% 30.12 in 10.0 mi NE 5.8 mph - N/A   Overcast
2:10 AM 71.6 °F 66.2 °F 83% 30.12 in 10.0 mi NE 9.2 mph - N/A   Overcast
2:30 AM 71.6 °F 66.2 °F 83% 30.12 in 10.0 mi NE 8.1 mph - N/A   Overcast
2:50 AM 71.6 °F 66.2 °F 83% 30.11 in 10.0 mi ENE 10.4 mph - N/A   Overcast
3:10 AM 71.6 °F 66.2 °F 83% 30.10 in 10.0 mi NE 10.4 mph - N/A   Overcast
3:30 AM 71.6 °F 66.2 °F 83% 30.10 in 10.0 mi NE 11.5 mph - N/A   Overcast
3:50 AM 71.6 °F 66.2 °F 83% 30.10 in 10.0 mi NE 10.4 mph - N/A   Overcast
4:10 AM 71.6 °F 66.2 °F 83% 30.10 in 9.0 mi NE 10.4 mph - N/A   Overcast
4:30 AM 71.6 °F 68.0 °F 88% 30.10 in 8.0 mi NE 11.5 mph - N/A Rain Light Rain
4:50 AM 71.6 °F 66.2 °F 83% 30.11 in 10.0 mi NE 12.7 mph - N/A   Overcast
5:10 AM 71.6 °F 64.4 °F 78% 30.11 in 10.0 mi NE 12.7 mph - N/A   Overcast
5:30 AM 71.6 °F 64.4 °F 78% 30.11 in 10.0 mi NE 12.7 mph - N/A Rain Light Rain
5:50 AM 69.8 °F 62.6 °F 78% 30.11 in 10.0 mi ENE 18.4 mph - N/A Rain Light Rain
6:10 AM 68.0 °F 62.6 °F 83% 30.12 in 10.0 mi ENE 12.7 mph - N/A Rain Light Rain
6:30 AM 66.2 °F 62.6 °F 88% 30.12 in 10.0 mi ENE 10.4 mph - N/A Rain Light Rain
6:50 AM 66.2 °F 62.6 °F 88% 30.12 in 10.0 mi ENE 9.2 mph - N/A Rain Light Rain
7:10 AM 66.2 °F 62.6 °F 88% 30.12 in 10.0 mi NE 8.1 mph - N/A Rain Light Rain
7:30 AM 66.2 °F 59.0 °F 78% 30.13 in 10.0 mi NNE 8.1 mph - N/A   Overcast
7:50 AM 66.2 °F 59.0 °F 78% 30.14 in 10.0 mi NNE 9.2 mph - N/A Rain Light Rain
8:10 AM 66.2 °F 59.0 °F 78% 30.15 in 6.0 mi North 9.2 mph - N/A Rain Light Rain
8:30 AM 62.6 °F 59.0 °F 88% 30.16 in 3.0 mi NNW 12.7 mph - 0.07 in Rain Rain
8:50 AM 62.6 °F 59.0 °F 88% 30.16 in 1.5 mi NNE 9.2 mph - 0.34 in Rain Heavy Rain
9:10 AM 62.6 °F 59.0 °F 88% 30.16 in 1.8 mi NE 9.2 mph - 0.02 in Rain Rain
9:30 AM 62.6 °F 57.2 °F 82% 30.16 in 2.5 mi NE 6.9 mph - 0.06 in Rain Rain
9:55 AM 62.6 °F 59.0 °F 88% 30.16 in 2.0 mi ENE 6.9 mph - 0.13 in Rain Rain
10:15 AM 62.6 °F 59.0 °F 88% 30.16 in 2.5 mi NE 8.1 mph - 0.02 in Rain Light Rain
10:35 AM 62.6 °F 59.0 °F 88% 30.17 in 6.0 mi NE 8.1 mph - 0.02 in Rain Light Rain
10:50 AM 62.6 °F 57.2 °F 82% 30.17 in 9.0 mi NE 8.1 mph - 0.03 in Rain Light Rain
11:10 AM 62.6 °F 59.0 °F 88% 30.17 in 9.0 mi North 6.9 mph - N/A Rain Light Rain
11:30 AM 64.4 °F 59.0 °F 83% 30.17 in 10.0 mi NNE 9.2 mph - N/A   Overcast
11:50 AM 64.4 °F 57.2 °F 77% 30.17 in 9.0 mi NNE 10.4 mph - N/A Rain Light Rain
12:10 PM 62.6 °F 59.0 °F 88% 30.16 in 1.8 mi NE 10.4 mph - 0.04 in Rain Rain
12:30 PM 62.6 °F 55.4 °F 77% 30.15 in 1.5 mi ENE 12.7 mph - 0.20 in Rain Heavy Rain
12:50 PM 60.8 °F 55.4 °F 82% 30.13 in 2.0 mi ENE 12.7 mph - 0.30 in Rain Light Rain
1:10 PM 62.6 °F 55.4 °F 77% 30.12 in 6.0 mi ENE 10.4 mph - N/A Rain Light Rain
1:35 PM 64.4 °F 57.2 °F 77% 30.12 in 10.0 mi ENE 8.1 mph - N/A Rain Light Rain
1:50 PM 66.2 °F 57.2 °F 73% 30.11 in 10.0 mi ENE 11.5 mph - N/A Rain Light Rain
2:10 PM 68.0 °F 59.0 °F 73% 30.10 in 10.0 mi NE 8.1 mph - N/A   Mostly Cloudy
2:30 PM 69.8 °F 57.2 °F 64% 30.10 in 10.0 mi ENE 6.9 mph - N/A   Mostly Cloudy
2:50 PM 71.6 °F 55.4 °F 57% 30.09 in 10.0 mi ENE 9.2 mph - N/A   Scattered Clouds
3:10 PM 73.4 °F 53.6 °F 50% 30.09 in 10.0 mi NE 10.4 mph - N/A   Partly Cloudy
3:30 PM 71.6 °F 59.0 °F 64% 30.08 in 10.0 mi North 9.2 mph - N/A   Partly Cloudy
3:50 PM 71.6 °F 60.8 °F 69% 30.07 in 10.0 mi North 9.2 mph - N/A   Partly Cloudy
4:10 PM 71.6 °F 59.0 °F 64% 30.06 in 10.0 mi NNE 6.9 mph - N/A   Partly Cloudy
4:30 PM 73.4 °F 57.2 °F 57% 30.05 in 10.0 mi NE 6.9 mph - N/A   Partly Cloudy
4:50 PM 73.4 °F 55.4 °F 53% 30.04 in 10.0 mi ENE 9.2 mph - N/A   Scattered Clouds
5:10 PM 73.4 °F 55.4 °F 53% 30.04 in 10.0 mi ENE 6.9 mph - N/A   Mostly Cloudy
5:30 PM 73.4 °F 55.4 °F 53% 30.04 in 10.0 mi NE 5.8 mph - N/A   Mostly Cloudy
5:50 PM 73.4 °F 55.4 °F 53% 30.03 in 10.0 mi ENE 5.8 mph - N/A   Scattered Clouds
6:10 PM 73.4 °F 55.4 °F 53% 30.03 in 10.0 mi ENE 4.6 mph - N/A   Partly Cloudy
6:30 PM 71.6 °F 62.6 °F 73% 30.03 in 10.0 mi NNE 4.6 mph - N/A   Partly Cloudy
6:50 PM 71.6 °F 62.6 °F 73% 30.03 in 10.0 mi North 3.5 mph - N/A   Mostly Cloudy
7:10 PM 71.6 °F 60.8 °F 69% 30.03 in 10.0 mi NNE 5.8 mph - N/A   Partly Cloudy
7:30 PM 71.6 °F 57.2 °F 60% 30.03 in 10.0 mi NE 5.8 mph - N/A   Scattered Clouds
7:50 PM 69.8 °F 59.0 °F 68% 30.03 in 10.0 mi NNE 5.8 mph - N/A   Mostly Cloudy
8:10 PM 69.8 °F 59.0 °F 68% 30.03 in 10.0 mi North 5.8 mph - N/A   Partly Cloudy
8:30 PM 68.0 °F 60.8 °F 78% 30.03 in 10.0 mi North 6.9 mph - N/A   Clear
8:50 PM 68.0 °F 59.0 °F 73% 30.04 in 10.0 mi North 5.8 mph - N/A   Clear
9:10 PM 68.0 °F 59.0 °F 73% 30.05 in 8.0 mi North 8.1 mph - N/A   Clear
9:30 PM 66.2 °F 59.0 °F 78% 30.05 in 10.0 mi North 8.1 mph - N/A   Clear
9:50 PM 66.2 °F 60.8 °F 83% 30.05 in 10.0 mi NNE 5.8 mph - N/A   Clear
10:10 PM 66.2 °F 59.0 °F 78% 30.05 in 10.0 mi NNE 5.8 mph - N/A   Scattered Clouds
10:30 PM 66.2 °F 59.0 °F 78% 30.05 in 10.0 mi NNE 6.9 mph - N/A   Scattered Clouds
10:50 PM 66.2 °F 59.0 °F 78% 30.04 in 10.0 mi NE 6.9 mph - N/A   Partly Cloudy
11:10 PM 66.2 °F 59.0 °F 78% 30.04 in 10.0 mi NE 6.9 mph - N/A   Mostly Cloudy
11:30 PM 66.2 °F 59.0 °F 78% 30.04 in 10.0 mi ENE 6.9 mph - N/A   Scattered Clouds
11:50 PM 68.0 °F 55.4 °F 64% 30.04 in 10.0 mi ENE 6.9 mph - N/A   Partly Cloudy